Location: Darlington Observatory
(36.4817°N, 105.8156°W)
Time: 00:51:18
(UTC-07:00)

Daily predictions for brighter satellites

Satellite Brightness Start Highest point End
(mag) Time Altitude Azimuth Time Altitude Azimuth Time Altitude Azimuth
Lacrosse 5 rocket 3.8 03:59:41 22° ENE 03:59:41 22° ENE 04:01:29 10° NE
Atlas Centaur 2 3.2 03:58:47 54° S 03:58:47 54° S 04:06:41 10° ESE
SL-16 R/B 3.0 04:11:34 42° NNE 04:11:34 42° NNE 04:15:14 10° NNE
Cosmos 2123 Rocket 4.1 04:09:34 10° S 04:15:45 73° E 04:22:00 10° N
Cosmos 1725 Rocket 4.3 04:13:51 10° N 04:19:59 63° E 04:26:05 10° SSE
Cosmos 2061 Rocket 4.4 04:33:09 45° SW 04:33:09 45° SW 04:37:44 10° S
Cosmos 1503 Rocket 4.4 04:32:03 38° N 04:33:52 61° ENE 04:38:58 10° SSE
CZ-4B R/B 3.1 04:28:44 10° N 04:34:25 79° WNW 04:40:03 10° SSW
Meteor 1-26 Rocket 4.4 04:30:33 16° N 04:35:00 68° E 04:40:37 10° SSE
Cosmos 2297 3.6 04:36:23 57° NNW 04:37:38 89° WSW 04:43:20 10° SSE
SL-8 R/B 3.9 04:39:33 58° S 04:40:08 64° SE 04:44:51 10° ENE
USA 229 DEB 4.0 04:36:41 28° NNW 04:40:51 72° ENE 04:48:11 10° SE
USA 229 4.0 04:36:45 27° NNW 04:40:56 71° ENE 04:48:16 10° SE
Cosmos 2016 Rocket 3.9 04:41:19 59° W 04:41:34 60° W 04:47:31 10° S
Cosmos 2278 Rocket 4.1 04:47:24 16° SSW 04:47:24 16° SSW 04:48:37 10° SSW
IRS-1C Rocket 3.9 04:39:01 10° N 04:44:16 74° WNW 04:49:30 10° SSW
Meteor 2-12 Rocket 4.3 04:41:58 10° N 04:48:02 83° W 04:54:05 10° S
IDEFIX/ARIANE 42P 4.3 04:45:05 10° NNE 04:49:44 33° E 04:54:22 10° SSE
Cosmos 1862 Rocket 3.4 04:50:03 76° NW 04:50:17 80° W 04:54:44 10° S
Meteor 1-28 Rocket 3.3 04:48:30 10° SSE 04:52:14 72° ENE 04:52:46 61° NNE
EO 1 Del DPAF 4.3 04:57:04 10° SE 05:00:42 44° ENE 05:04:23 10° N
Delta 2 Rocket 3.3 05:01:55 58° SW 05:02:21 63° SSW 05:06:43 10° ESE
Landsat 4 3.6 04:59:03 10° SSE 05:02:46 87° ENE 05:03:57 42° N
Celestis-02/Orion 38 4.5 05:00:14 10° SSE 05:05:26 90° WSW 05:09:07 20° NNW
Okean 1-7 4.4 05:07:01 10° N 05:11:11 40° E 05:15:16 10° SSE
Cosmos 1354 Rocket 4.0 05:08:59 28° NW 05:11:34 58° WSW 05:16:41 10° S
Hubble Space Telescope 2.3 05:11:14 21° SW 05:12:44 27° S 05:16:13 10° ESE
OAO 1 Rocket 4.5 05:10:41 35° W 05:12:57 78° S 05:18:20 10° E
Cosmos 1943 Rocket 4.4 05:11:02 10° N 05:15:19 21° ENE 05:19:34 10° ESE
USA 32 4.0 05:11:17 10° SSW 05:16:25 59° W 05:21:35 10° N
USA 215 4.4 05:10:33 10° ENE 05:16:44 44° SE 05:22:52 10° SSW
Cosmos 1943 4.0 05:13:10 10° S 05:18:39 53° ESE 05:24:11 10° NNE
CZ-3B R/B 2.2 05:17:43 37° SW 05:18:40 89° SSE 05:20:31 10° NE
SKYMED 2 3.6 05:15:32 10° SSE 05:19:51 79° ENE 05:24:13 10° N
Cosmos 1825 2.0 05:20:38 10° S 05:24:24 77° W 05:28:10 10° N
ATLAS 5 CENTAUR R/B 2.2 05:23:26 10° SSW 05:27:53 62° ESE 05:32:40 10° NE
Cosmos 2233 Rocket 4.0 05:24:25 10° NNW 05:30:23 55° W 05:36:19 10° SSW
DELTA 2 R/B (1) 3.6 05:29:20 24° WNW 05:32:47 84° NNE 05:38:23 10° ESE
Lacrosse 5 rocket 2.8 05:35:26 22° WNW 05:36:29 24° NW 05:40:14 10° NNE
Cosmos 2221 Rocket 3.8 05:33:20 10° N 05:37:49 77° E 05:42:18 10° S
Okean-O 2.8 05:35:49 10° N 05:40:05 46° WNW 05:44:18 10° SW
Meteor 2-3 Rocket 4.5 05:36:06 10° SW 05:41:06 30° WNW 05:46:04 10° NNW
Meteor 1-10 Rocket 4.3 05:41:05 10° NNW 05:47:02 77° W 05:52:56 10° S
Atlas Centaur 2 3.9 05:41:25 13° W 05:47:55 38° SSW 05:55:39 10° SE
Cosmos 1441 Rocket 3.5 05:45:18 10° N 05:49:03 67° E 05:52:46 10° SSE
Cosmos 1703 Rocket 3.8 05:45:21 10° NNW 05:49:30 45° W 05:53:38 10° SSW
Cosmos 1606 2.9 05:46:21 10° NNW 05:49:59 45° W 05:53:39 10° SSW
Cosmos 1869 Rocket 3.8 05:47:43 10° SSW 05:51:52 45° W 05:56:07 10° N
SL-16 R/B 3.8 05:53:33 13° WNW 05:54:21 14° NW 05:57:12 10° NNW
Cosmos 1513 Rocket 4.5 05:51:58 10° N 05:58:04 89° ENE 06:04:08 10° S
COSMOS 2441 4.4 05:53:22 10° NNE 05:58:18 88° E 06:03:11 10° SSW
Cosmos 1603 4.2 05:53:37 10° SW 05:58:44 35° WNW 06:03:56 10° N
Cosmos 1777 Rocket 4.5 05:55:01 10° N 06:00:12 63° ENE 06:05:20 10° SSE
Intercosmos 25 3.9 05:57:39 10° NNW 06:00:55 38° W 06:05:20 10° SSW
Cosmos 1782 3.5 05:59:02 10° NNW 06:02:37 33° W 06:06:10 10° SSW
SMAP 4.3 05:59:06 10° NNE 06:03:36 48° E 06:08:05 10° S
Cosmos 1408 4.1 06:05:06 10° WSW 06:07:42 18° WNW 06:10:18 10° NNW
COSMO-SKYMED 1 3.5 06:04:19 10° SSW 06:08:02 28° W 06:11:46 10° NW
Cosmos 1891 Rocket 4.4 06:04:09 10° N 06:10:10 75° W 06:16:16 10° S
NOSS 3-1 (C) 4.3 06:03:03 10° NW 06:10:46 62° WSW 06:19:09 10° SSE
CZ-2C R/B 2.7 06:06:25 10° N 06:11:24 50° WNW 06:16:16 10° SSW
PSLV R/B 4.0 06:16:26 10° WNW 06:19:22 34° N 06:22:20 10° ENE
Cosmos 405 Rocket 3.3 06:16:43 10° NNW 06:20:06 33° W 06:23:29 10° SSW
Cosmos 2369 Rocket 2.2 06:15:54 10° NNW 06:21:28 67° WSW 06:27:00 10° S
Ariane Rocket 3.2 06:16:26 10° NNE 06:21:30 78° ESE 06:26:32 10° S
